Regional Weather Roundup
Issued by NWS

Home | Current Version | Previous Version | Graphics & Text | Print | Product List | Glossary Off
Versions: 1 2 3 4 5 6 7 8 9 10 11 12 13 14 15 16 17 18 19 20 21 22 23 24 25 26 27 28 29 30 31 32 33 34 35 36 37 38 39 40 41 42 43 44 45 46 47 48 49 50

000
ASUS43 KMPX 210110
RWRMN
WEATHER ROUNDUP FOR MINNESOTA
NATIONAL WEATHER SERVICE TWIN CITIES/CHANHASSEN MN
700 PM CST MON FEB 20 2017


NOTE: "FAIR" INDICATES FEW OR NO CLOUDS BELOW 12,000 FEET WITH NO
SIGNIFICANT WEATHER AND/OR OBSTRUCTIONS TO VISIBILITY. N/A MEANS
CURRENT SKY AND/OR WEATHER CONDITIONS ARE NOT AVAILABLE.

MNZ060>063-068>070-210200-
   Twin Cities Metro

CITY           SKY/WX    TMP DP  RH WIND       PRES   REMARKS
TWIN CITIES    CLOUDY    53  51  93 S7        29.68R
ST PAUL        CLOUDY    51  51 100 S10       29.68R
CRYSTAL        CLOUDY   N/A N/A N/A S12       29.66R
BLAINE         CLOUDY    54  54 100 S12       29.66R FOG
LAKEVILLE      CLOUDY    52  52 100 S6        29.69R
EDEN PRAIRIE   CLOUDY    54  52  93 S10       29.66R FOG
SOUTH ST PAUL  CLOUDY    53  52  98 S10       29.68R
LAKE ELMO      CLOUDY    52  52 100 S12       29.68S
$$
MNZ001>005-007-008-013>017-022>024-027-028-210200-
   Northwest Minnesota

CITY           SKY/WX    TMP DP  RH WIND       PRES   REMARKS
BEMIDJI        RAIN      35  35 100 W12       29.61R WCI  26
HALLOCK        CLOUDY    34  34 100 W6        29.66R WCI  29
ROSEAU         CLOUDY    34  30  86 W12G23    29.61R WCI  25
WARROAD        MOCLDY    34  30  86 W12       29.59R WCI  25
THIEF RVR FALL CLOUDY    34  33  96 W10       29.66R WCI  26
CROOKSTON      CLOUDY    34  34 100 W9        29.70R WCI  26
FOSSTON        CLOUDY    34  34 100 W10       29.68R FOG     WCI  26
DETROIT LAKES  CLOUDY    36  36 100 NW16      29.72R FOG
MOORHEAD       PTCLDY    36  34  93 W5        29.74R
PARK RAPIDS    CLOUDY    36  33  89 NW10      29.62R
MAHNOMEN       CLOUDY    34  34  99 W14       29.70R WCI  25
$$
MNZ006-009>011-018-025>026-210200-
   North Central Minnesota

CITY           SKY/WX    TMP DP  RH WIND       PRES   REMARKS
BAUDETTE       CLOUDY    36  34  92 NW12      29.55R
FLAG ISLAND    CLOUDY    36  34  93 W18       29.54R
INTL FALLS     RAIN      43  41  93 VRB5      29.53S FOG
WASKISH        LGT RAIN  37  36  93 W15       29.59R
LONGVILLE      DRZL/FOG  45  43  93 SW6       29.59R VSB 3/4
GRAND RAPIDS   LGT RAIN  41  41 100 SE6       29.57F VSB 1/4
CRANE LAKE     DRIZZLE   41  39  93 CALM      29.56F
ORR            CLOUDY    41  39  93 SE6       29.51F
COOK           RAIN      43  41  93 S6        29.55F
WALKER         LGT RAIN  38  37  96 W15G22    29.61R
$$
MNZ012-019>021-037-210200-
   Northeast Minnesota

CITY           SKY/WX    TMP DP  RH WIND       PRES   REMARKS
DULUTH         LGT RAIN  42  41  96 SE9       29.59F VSB 1/2
ELY            LGT RAIN  43  41  93 S5        29.57F
HIBBING        LGT RAIN  39  32  76 SE5       29.56F VSB 1/2
EVELETH        LGT RAIN  42  41  96 SE3       29.58F
DULUTH HARBOR  LGT RAIN  36  34  93 CALM      29.63F VSB 3/4
TWO HARBORS    LGT RAIN  43  37  81 CALM      29.60F VSB 1
SILVER BAY     DRIZZLE   39  39 100 CALM      29.61F
GRAND MARAIS     N/A     41  40  96 NE8       29.66F
G MARAIS ARPRT LGT RAIN  37  36  93 SE7       29.64F
$$
MNZ029>031-032-039>041-046>048-054>057-064-210200-
   West Central Minnesota

CITY           SKY/WX    TMP DP  RH WIND       PRES   REMARKS
FERGUS FALLS   CLOUDY    37  37 100 NW15      29.78R
WHEATON        CLEAR     37  34  87 W8        29.79R
MORRIS         MOCLDY    39  37  93 W18       29.75R
ALEXANDRIA     CLOUDY    37  37 100 W18G24    29.72R FOG
ELBOW LAKE     CLOUDY    37  37  99 NW16      29.75R
WADENA         CLOUDY    36  36 100 W12       29.67R
GLENWOOD       CLOUDY    37  37 100 W17       29.73R
APPLETON       PTCLDY    41  37  87 NW13G18   29.78R
BENSON         CLOUDY    43  37  81 NW17G24   29.78R
ORTONVILLE     CLEAR     39  37  93 W10       29.78R
WILLMAR        CLOUDY    41  41 100 W16G23    29.75R
$$
MNZ033>034-036-042>043-049>051-058-059-210200-
   Central Minnesota

CITY           SKY/WX    TMP DP  RH WIND       PRES   REMARKS
ST CLOUD       LGT RAIN  50  50 100 SW22G29   29.65R FOG
SAUK CENTRE    CLOUDY    39  38  97 W12G17    29.70R
PAYNESVILLE    DRIZZLE   42  42 100 W15       29.71R
AITKIN         FOG       48  45  87 S10       29.57R VSB 1
PINE RIVER     LGT RAIN  45  45 100 W13G21    29.65R
BRAINERD       LGT RAIN  46  46 100 SW15G21   29.62R FOG
STAPLES        DRIZZLE   37  37 100 W13       29.66R
LONG PRAIRIE   CLOUDY    37  37 100 W14G21    29.67R
LITTLE FALLS   RAIN      46  45  93 W16G22    29.65R
LITCHFIELD     CLOUDY    46  46 100 W10G17    29.69R
BUFFALO        RAIN      52  51  95 S7        29.66R
MAPLE LAKE     CLOUDY    53  53  99 SW9       29.67R FOG
HUTCHINSON     CLOUDY    48  48  99 W17G23    29.70R
$$
MNZ037-044-045-052-053-210200-
   East Central Minnesota

CITY           SKY/WX    TMP DP  RH WIND       PRES   REMARKS
PRINCETON      CLOUDY    52  52 100 S7        29.65R FOG
MORA           FOG       45  45 100 S8        29.66R VSB 1/2
CAMBRIDGE      CLOUDY    52  50  93 S10       29.63R FOG
RUSH CITY      CLOUDY    48  48 100 S7        29.66R FOG
MOOSE LAKE     FOG       41  41 100 CALM      29.59R VSB 3/4
HINCKLEY       FOG       48  48 100 S8        29.64R VSB 1/2
CLOQUET        RAIN      37  37 100 SE5       29.59F VSB 1/2
MCGREGOR       CLOUDY    45  43  93 S5        29.60R
$$
MNZ071>073-080-081-089-090-097-098-210200-
   Southwest Minnesota

CITY           SKY/WX    TMP DP  RH WIND       PRES   REMARKS
MONTEVIDEO     PTCLDY    41  41 100 NW7       29.79R
GRANITE FALLS  PTCLDY    44  42  93 W12       29.79R
CANBY          CLEAR     46  41  81 NW15      29.79R
MARSHALL       CLEAR     46  41  82 W16       29.80R
REDWOOD FALLS  CLOUDY    45  40  82 NW15      29.76R
OLIVIA         CLOUDY    41  39  93 W18G25    29.74R
PIPESTONE      CLEAR     46  37  71 NW9       29.82R
WINDOM         CLOUDY    46  43  87 W16       29.78R
WORTHINGTON    CLEAR     45  42  89 W14       29.83R
JACKSON        PTCLDY    46  41  81 W15G23    29.80R
TRACY          CLEAR     47  43  85 W10G16    29.80R
SLAYTON        CLEAR     45  41  86 W20       29.81R
$$
MNZ065>067-074>077-082>085-091>093-210200-
   South Central Minnesota

CITY           SKY/WX    TMP DP  RH WIND       PRES   REMARKS
MANKATO          N/A     53  49  86 W17G25    29.72R
NEW ULM        CLOUDY    48  46  93 W24       29.73R
ST JAMES       CLOUDY    48  46  93 W21G35    29.77R
FAIRMONT       CLOUDY    49  46  90 W14       29.78R
GLENCOE        CLOUDY    53  53 100 SW16G23   29.67R
FARIBAULT      CLOUDY    54  54 100 S9        29.71S
OWATONNA       CLOUDY    54  52  94 S12       29.72S
WASECA         CLOUDY    52  52 100 S16       29.73R FOG
ALBERT LEA     CLOUDY    55  54  94 SW7G16    29.75R FOG
$$
MNZ078>079-086>088-094>096-210200-
   Southeast Minnesota

CITY           SKY/WX    TMP DP  RH WIND       PRES   REMARKS
ROCHESTER      CLOUDY    52  52 100 S17       29.74S
RED WING       LGT RAIN  54  52  94 CALM      29.71R
STANTON        CLOUDY    54  51  91 S12       29.67F
DODGE CENTER   LGT RAIN  52  52 100 S13       29.74R
WINONA         DRIZZLE   55  54  94 S6        29.76F
AUSTIN         CLOUDY    54  52  94 S10       29.74R FOG
PRESTON        CLOUDY    52  51  95 S10       29.76F FOG
$$
ABBREVIATIONS USED IN REMARKS
   TC - TEMPERATURES IN CELSIUS
  WCI - WIND CHILL INDEX
   HX - HEAT INDEX
  VSB - VISIBILITY
$$




USA.gov is the U.S. government's official web portal to all federal, state and local government web resources and services.